Bangkok (Don Mueang), Thailand

12:36 AM +07 on April 25, 2018 (GMT +0700)
Bangkok International

Weather History for VTBD - November, 2013

Change the Weather History Date:

Tuesday, November 12, 2013

  Actual Average Record
Temperature  
Mean Temperature 88 °F -  
Max Temperature 97 °F 87 °F 97 °F (2013)
Min Temperature 80 °F 73 °F 69 °F (2008)
Cooling Degree Days 24    
Growing Degree Days 38 (Base 50)    
Moisture  
Dew Point 74 °F    
Average Humidity 64    
Maximum Humidity 89    
Minimum Humidity 34    
Precipitation  
Precipitation 0.00 in 0.04 in - ()
Sea Level Pressure  
Sea Level Pressure 29.77 in    
Wind  
Wind Speed 2 mph ()    
Max Wind Speed 9 mph    
Max Gust Speed -    
Visibility 6.0 miles    
Events      
Averages and records for this station are not official NWS values.
T = Trace of Precipitation, MM = Missing Value Source: Averaged Metar Reports

Daily Weather History Graph

Daily Weather History Graph

Search for Another Location

Airport or City:

Astronomy

Nov. 12, 2013 Rise Set
Actual Time 6:16 AM +07 5:47 PM +07
Civil Twilight 5:53 AM +07 6:09 PM +07
Nautical Twilight 5:28 AM +07 6:35 PM +07
Astronomical Twilight 5:02 AM +07 7:00 PM +07
Moon 1:56 PM +07 (11/12) 1:24 AM +07 (11/12)
Length of Visible Light 12h 15m
Length of Day
11h 30m
Waxing Gibbous, 71% of the Moon is Illuminated
Nov 12
Waxing Gibbous
Nov 17
Full
Nov 26
Last Quarter
Dec 3
New
Dec 9
First Quarter

Hourly Weather History & Observations

Time (+07) Temp. Heat Index Dew Point Humidity Pressure Visibility Wind Dir Wind Speed Gust Speed Precip Events Conditions
12:00 AM 86.0 °F 93.4 °F 73.4 °F 66% 29.77 in 6.2 mi Calm Calm - N/A   Scattered Clouds
12:30 AM 84.2 °F 90.9 °F 73.4 °F 70% 29.77 in 6.2 mi Calm Calm - N/A   Scattered Clouds
1:00 AM 84.2 °F 90.9 °F 73.4 °F 70% 29.77 in 6.2 mi Calm Calm - N/A   Scattered Clouds
1:30 AM 84.2 °F 90.9 °F 73.4 °F 70% 29.74 in 6.2 mi Calm Calm - N/A   Scattered Clouds
2:00 AM 84.2 °F 90.9 °F 73.4 °F 70% 29.74 in 6.2 mi Calm Calm - N/A   Scattered Clouds
2:30 AM 84.2 °F 90.9 °F 73.4 °F 70% 29.74 in 6.2 mi Calm Calm - N/A   Scattered Clouds
3:00 AM 84.2 °F 90.9 °F 73.4 °F 70% 29.74 in 6.2 mi Calm Calm - N/A   Scattered Clouds
3:30 AM 84.2 °F 90.9 °F 73.4 °F 70% 29.74 in 6.2 mi Calm Calm - N/A   Scattered Clouds
4:00 AM 82.4 °F 89.5 °F 75.2 °F 79% 29.74 in 6.2 mi Calm Calm - N/A   Scattered Clouds
4:30 AM 82.4 °F 89.5 °F 75.2 °F 79% 29.74 in 6.2 mi Calm Calm - N/A   Scattered Clouds
5:00 AM 82.4 °F 89.5 °F 75.2 °F 79% 29.74 in 6.2 mi Calm Calm - N/A   Scattered Clouds
5:30 AM 82.4 °F 89.5 °F 75.2 °F 79% 29.74 in 6.2 mi Calm Calm - N/A   Scattered Clouds
6:00 AM 80.6 °F 86.2 °F 75.2 °F 84% 29.77 in 6.2 mi ESE 3.5 mph - N/A   Scattered Clouds
6:30 AM 80.6 °F 86.2 °F 75.2 °F 84% 29.77 in 6.2 mi ESE 3.5 mph - N/A   Scattered Clouds
7:00 AM 81 °F - 77 °F 84% 29.79 in 6 mi ESE 3.5 mph - -   Mist
7:00 AM 80.6 °F 87.1 °F 77.0 °F 89% 29.77 in 5.6 mi ESE 3.5 mph - N/A   Scattered Clouds
7:30 AM 82.4 °F 90.9 °F 77.0 °F 84% 29.80 in 5.6 mi ESE 3.5 mph - N/A   Scattered Clouds
8:00 AM 82.4 °F 90.9 °F 77.0 °F 84% 29.80 in 5.0 mi ESE 3.5 mph - N/A   Scattered Clouds
8:30 AM 84.2 °F 94.1 °F 77.0 °F 79% 29.83 in 4.3 mi ESE 3.5 mph - N/A   Scattered Clouds
9:00 AM 86.0 °F 96.9 °F 77.0 °F 74% 29.83 in 4.3 mi Calm Calm - N/A   Mostly Cloudy
9:30 AM 87.8 °F 99.7 °F 77.0 °F 70% 29.83 in 5.0 mi South 3.5 mph - N/A   Mostly Cloudy
10:00 AM 89.6 °F 102.2 °F 77.0 °F 66% 29.83 in 5.0 mi East 5.8 mph - N/A   Mostly Cloudy
10:30 AM 89.6 °F 102.2 °F 77.0 °F 66% 29.83 in 5.6 mi SSE 5.8 mph - N/A   Mostly Cloudy
11:00 AM 91.4 °F 102.5 °F 75.2 °F 59% 29.83 in 5.6 mi East 8.1 mph - N/A   Mostly Cloudy
11:30 AM 91.4 °F 102.5 °F 75.2 °F 59% 29.80 in 5.6 mi SSE 6.9 mph - N/A   Scattered Clouds
12:00 PM 93.2 °F 102.4 °F 73.4 °F 52% 29.77 in 6.2 mi East 6.9 mph - N/A   Scattered Clouds
12:30 PM 93.2 °F 102.4 °F 73.4 °F 52% 29.77 in 6.2 mi South 5.8 mph - N/A   Scattered Clouds
1:00 PM 95 °F - 73 °F 40% 29.77 in 6 mi WSW 5.8 mph - -   Partly Cloudy
1:00 PM 95.0 °F 104.5 °F 73.4 °F 49% 29.77 in 6.2 mi WSW 5.8 mph - N/A   Scattered Clouds
1:30 PM 95.0 °F 104.5 °F 73.4 °F 49% 29.74 in 6.2 mi ESE 8.1 mph - N/A   Scattered Clouds
2:00 PM 95.0 °F 103.2 °F 71.6 °F 47% 29.74 in 6.2 mi NE 4.6 mph - N/A   Scattered Clouds
2:30 PM 95.0 °F 103.2 °F 71.6 °F 47% 29.71 in 6.2 mi South 3.5 mph - N/A   Scattered Clouds
3:00 PM 96.8 °F 105.1 °F 71.6 °F 44% 29.71 in 6.2 mi East 3.5 mph - N/A   Scattered Clouds
3:30 PM 96.8 °F 105.1 °F 71.6 °F 44% 29.71 in 6.2 mi Calm Calm - N/A   Scattered Clouds
4:00 PM 97 °F - 72 °F 34% 29.72 in 6 mi West 4.6 mph - -   Scattered Clouds
4:00 PM 96.8 °F 105.1 °F 71.6 °F 44% 29.71 in 6.2 mi West 4.6 mph - N/A   Partly Cloudy
4:30 PM 96.8 °F 105.1 °F 71.6 °F 44% 29.71 in 6.2 mi West 8.1 mph - N/A   Scattered Clouds
5:00 PM 95.0 °F 101.3 °F 69.8 °F 44% 29.71 in 6.2 mi West 5.8 mph - N/A   Mostly Cloudy
5:30 PM 93.2 °F 98.8 °F 69.8 °F 46% 29.74 in 6.2 mi West 9.2 mph - N/A   Mostly Cloudy
6:00 PM 89.6 °F 98.2 °F 73.4 °F 59% 29.74 in 5.0 mi WNW 8.1 mph - N/A   Mostly Cloudy
6:30 PM 87.8 °F 95.6 °F 73.4 °F 62% 29.74 in 5.6 mi WNW 5.8 mph - N/A   Scattered Clouds
7:00 PM 87 °F - 73 °F 56% 29.76 in 6 mi WNW 4.6 mph - -   Scattered Clouds
7:00 PM 87.8 °F 95.6 °F 73.4 °F 62% 29.74 in 6.2 mi WNW 4.6 mph - N/A   Scattered Clouds
7:30 PM 86.0 °F 93.4 °F 73.4 °F 66% 29.77 in 6.2 mi West 3.5 mph - N/A   Mostly Cloudy
8:00 PM 86.0 °F 93.4 °F 73.4 °F 66% 29.77 in 6.2 mi SSW 4.6 mph - N/A   Mostly Cloudy
8:30 PM 86.0 °F 93.4 °F 73.4 °F 66% 29.80 in 6.2 mi WSW 4.6 mph - N/A   Mostly Cloudy
9:00 PM 86.0 °F 93.4 °F 73.4 °F 66% 29.80 in 6.2 mi West 4.6 mph - N/A   Mostly Cloudy
9:30 PM 86.0 °F 93.4 °F 73.4 °F 66% 29.80 in 6.2 mi West 3.5 mph - N/A   Mostly Cloudy
10:00 PM 86 °F - 73 °F 57% 29.81 in 6 mi West 3.5 mph - -   Scattered Clouds
10:00 PM 86.0 °F 93.4 °F 73.4 °F 66% 29.80 in 6.2 mi West 3.5 mph - N/A   Mostly Cloudy
10:30 PM 84.2 °F 92.3 °F 75.2 °F 74% 29.80 in 6.2 mi West 6.9 mph - N/A   Mostly Cloudy
11:00 PM 84.2 °F 92.3 °F 75.2 °F 74% 29.80 in 6.2 mi West 4.6 mph - N/A   Mostly Cloudy
11:30 PM 84.2 °F 92.3 °F 75.2 °F 74% 29.80 in 6.2 mi WSW 2.3 mph - N/A   Mostly Cloudy